Regional Weather Roundup
Issued by NWS Cleveland, OH

Home | Current Version | Previous Version | Text Only | Print | Product List | Glossary On
Versions: 1 2 3 4 5 6 7 8 9 10 11 12 13 14 15 16 17 18 19 20 21 22 23 24 25 26 27 28 29 30 31 32 33 34 35 36 37 38 39 40 41 42 43 44 45 46 47 48 49 50
000
ASUS41 KCLE 300610
RWRCLE
OHIO REGIONAL WEATHER ROUNDUP
NATIONAL WEATHER SERVICE CLEVELAND, OH
200 AM EDT WED JUL 30 2014

NOTE: "FAIR" INDICATES FEW OR NO CLOUDS BELOW 12,000 FEET WITH NO
SIGNIFICANT WEATHER AND/OR OBSTRUCTIONS TO VISIBILITY.

OHZ001>008-015>018-024>027-034-035-043-044-300700-
   NORTHWEST OHIO

CITY           SKY/WX    TMP DP  RH WIND       PRES   REMARKS
DEFIANCE       FOG       56  54  93 CALM      30.00S VSB 1/2
FINDLAY        CLEAR     60  56  86 SW5       29.99F
TOLEDO EXPRESS PTCLDY    59  57  93 S3        29.98S
TOLEDO EXEC    PTCLDY    60  55  83 SW5       29.99S
LIMA           CLEAR     61  57  87 W7        30.01F
$$

OHZ009>014-019>023-028>033-038-089-300700-
   NORTHEAST OHIO

CITY           SKY/WX    TMP DP  RH WIND       PRES   REMARKS
CLE-HOPKINS    MOCLDY    62  54  74 SW7       30.00F
CLE-LAKEFRONT  LGT RAIN  63  56  78 SW12      29.96F
CUY CO. ARPT   NOT AVBL
LORAIN-ELYRIA  MOCLDY    63  54  72 SW5       30.00F
ASHTABULA      MOCLDY    58  54  86 SW3       30.00S
AKRON-CANTON   MOCLDY    59  50  72 SW5       30.02F
WOOSTER        PTCLDY    57  51  80 SW7       30.02F
MANSFIELD      PTCLDY    56  53  90 S5        30.02F
YOUNGSTOWN     CLOUDY    58  52  80 SW5       30.01F
$$

OHZ042-051>053-060>062-070>072-077>081-300700-
  SOUTHWEST OHIO

CITY           SKY/WX    TMP DP  RH WIND       PRES   REMARKS
CINC-COVINGTON PTCLDY    61  57  87 SW5       30.06S
CINC-LUNKEN    CLEAR     58  57  97 CALM      30.06S
HAMILTON       CLEAR     57  56  96 CALM      30.06S
DAYTON         CLEAR     60  56  86 SW7       30.04S
WRIGHT-PAT AFB MOCLDY    62  57  86 S3        30.04S
DAYTON GENERAL CLEAR     59  55  87 S5        30.04S
WILMINGTON     PTCLDY    57  53  86 S3        30.05S
$$

OHZ036-037-039>041-045>050-054>059-063>069-073>076-082>088-300700-
  CENTRAL AND SOUTHEAST OHIO

CITY           SKY/WX    TMP DP  RH WIND       PRES   REMARKS
COLUMBUS       PTCLDY    63  52  67 S3        30.03S
OSU AIRPORT    PTCLDY    61  54  77 S3        30.03S
BOLTON FIELD   PTCLDY    56  55  94 S5        30.04S
RICKENBACK AFB MOCLDY    60  52  75 S6        30.03S
NEWARK         MOCLDY    56  53  90 CALM      30.04R
MARION         MOCLDY    59  55  87 SW5       30.02S
LANCASTER      CLOUDY    59  55  87 CALM      30.04F
ZANESVILLE     MOCLDY    56  52  86 CALM      30.05R
NEW PHILLY     MOCLDY    55  54  96 SE3       30.04F
$$


USA.gov is the U.S. government's official web portal to all federal, state and local government web resources and services.